Showing default

METEOR 2-6, 11962

Orbit data source: Space-Track

METEOR 2-6, 11962 is a Commonwealth of Independent States-origin payload satellite in LEO that was launched on Tue, 09 Sep 1980 UTC via a VOSTOK 8A92M launch vehicle from the Plesetsk Missile And Space Complex (PKMTR). Payload-class satellites include a variety of spacecraft equipped with specific instruments for various scientific and technological missions. These include communications satellites like Starlink; space stations such as the ISS; scientific satellites like the Hubble; Earth observation satellites from companies like Planet Labs, Umbra, and HawkEye 360; GPS; miniature CubeSats for education and research; and military/defense satellites.

Loading next visibility...
Identifier
11962, 1980-073A
Orbit
LEO
Country
Flag of CISCIS
Related business
Manufacturer
VNIIEM
Mission
Spacecraft
Bus & Motor
METEOR-2, Unknown motor
Mass
~1,500 kg wet, ~1,500 kg dry
Launch date (UTC)
1980-09-09 (45 years ago)
Launch vehicle
VOSTOK 8A92M
Launch site
Plesetsk Missile And Space Complex (PKMTR)
Object type
Payload
Rocket body
Debris
Shape & HBR
Unknown
Radar Cross Section
Large (>1 m²)

Expand to show TLE details & history
Last TLE update: 9 hours ago

TLE from 9 hours ago
0 METEOR 2-6
1 11962U 80073A   25308.72345019  .00000009  00000-0 -20427-5 0  9996
2 11962  81.2201 309.2662 0036780  55.8697 304.5954 14.11095044323071
Epoch: 2025-11-04T17:21Z
TLE epoch observation values (Epoch: 2025-11-04T17:21:46.096Z)
Latitude
-0.00001°
Longitude
4.61775°
Altitude
843.484 km
Speed
7.439 km/s
True Right ascension
20h 37m 03s
True Declination
0° 00' 00"
Sunlit
Object was in daylight at epoch
Visualization orbit readout
Latitude
Unknown
Longitude
Unknown
Altitude
Unknown
Speed
Unknown
Apparent Right ascension
Unknown
Apparent Declination
Unknown
Sunlit
N/A
Visualization observer readout
Local Sidereal Time
22:44:55
Azimuth
Unknown
Elevation
Unknown
Doppler factor
Unknown
Orbital elements
Apogee altitude
879.396 km
Perigee altitude
826.205 km
Semi-major axis
7,230.938 km
Eccentricity
0.00368
Inclination
81.2201°
RAAN
309.2662°
Arg. of periapsis
55.8697°
True anomaly
304.24755°
Mean anomaly
304.5954°
Eccentric anomaly
304.42157°
Mean motion
3.52981 °/min
Orbital period
101.99 mins
BSTAR
-0.0000020427
Loading maneuver chart data...
Computing Atmospheric mass density...
Loading historical data...
Loading historical data...
Loading historical data...
Loading historical data...
Loading historical data...
Loading historical data...
Loading historical data...

Documentation

Showing up to 5 results
|